This demonstration page uses our WeatherBlox Daily Observations layout. Learn more.

Hourly Observations for December 1, 2019

Temp ( °F °C ) Dew Point ( °F °C ) Humidity (%) Winds ( mph kmh ) Pressure ( in mb ) Visibility ( mi km ) Precip ( " mm )
12:05 am 00:05 Cloudy 35 1.7 30 -1.1 82 82 NW 28 44 29.5 999 10 16.0934 0 0
12:54 am 00:54 Windy with Snow Likely 35 1.7 29 -1.7 78 78 NW 26 43 29.51 999 8 12.87472 0.001 0.001
1:12 am 01:12 Cloudy 35 1.7 28 -2.2 76 76 NW 30 48 29.59 1002 10 16.0934 0.001 0.001
1:54 am 01:54 Cloudy 34 1.1 27 -2.8 76 76 NW 35 56 29.58 1002 10 16.0934 0.001 0.001
2:54 am 02:54 Cloudy 34 1.1 26 -3.3 73 73 NW 29 46 29.65 1004 10 16.0934 0.001 0.001
3:54 am 03:54 Cloudy 33 0.6 25 -3.9 72 72 NW 30 48 29.68 1005 10 16.0934 0 0
4:54 am 04:54 Cloudy 32 0 23 -5 69 69 NW 28 44 29.72 1006 10 16.0934 0 0
5:22 am 05:22 Windy with Snow Likely 31 -0.6 22 -5.6 69 69 NW 28 44 29.77 1008 9 14.48406 0.001 0.001
5:52 am 05:52 Windy with Snow Likely 30 -1 23 -5 75 75 NW 26 43 29.77 1008 8 12.87472 0.001 0.001
5:54 am 05:54 Windy with Snow Likely 30 -1.1 23 -5 75 75 NW 26 43 29.75 1007 8 12.87472 0.001 0.001
6:54 am 06:54 Cloudy with Light Wintry Mix 30 -1.1 22 -5.6 72 72 NW 26 43 29.79 1009 10 16.0934 0.001 0.001
7:54 am 07:54 Cloudy 30 -1.1 20 -6.7 66 66 NW 21 33 29.83 1010 10 16.0934 0.001 0.001
8:54 am 08:54 Cloudy 30 -1.1 21 -6.1 69 69 NW 24 39 29.88 1012 10 16.0934 0 0
9:54 am 09:54 Cloudy 30 -1.1 20 -6.7 66 66 NNW 30 48 29.93 1013 10 16.0934 0 0
10:54 am 10:54 Windy with Snow Likely 31 -0.6 23 -5 72 72 NNW 25 41 29.97 1015 6 9.65604 0.001 0.001
11:19 am 11:19 Windy with Snow Likely 30 -1.1 24 -4.4 79 79 NNW 23 37 30 1016 2.5 4.02335 0.001 0.001
11:34 am 11:34 Windy with Snow Likely 30 -1.1 24 -4.4 79 79 NNW 23 37 30 1016 1.5 2.41401 0.001 0.001
11:54 am 11:54 Windy with Snow Likely 31 -0.6 23 -5 72 72 NW 26 43 29.97 1015 3 4.82802 0.001 0.001
12:54 pm 12:54 Cloudy 31 -0.6 22 -5.6 69 69 NW 22 35 29.98 1015 10 16.0934 0.001 0.001
1:54 pm 13:54 Cloudy 32 0 21 -6.1 64 64 NNW 28 44 30.01 1016 10 16.0934 0 0
2:54 pm 14:54 Cloudy 31 -0.6 21 -6.1 67 67 NW 23 37 30.05 1018 10 16.0934 0 0
3:42 pm 15:42 Cloudy 31 -0.6 22 -5.6 69 69 NNW 26 43 30.12 1020 10 16.0934 0 0
3:49 pm 15:49 Cloudy 30 -1 21 -6 69 69 NW 20 31 30.12 1020 10 16.0934 0 0
3:54 pm 15:54 Cloudy 31 -0.6 22 -5.6 69 69 NW 21 33 30.09 1019 10 16.0934 0 0
4:54 pm 16:54 Cloudy 31 -0.6 22 -5.6 69 69 NNW 22 35 30.12 1020 10 16.0934 0 0
5:54 pm 17:54 Mostly Cloudy 30 -1.1 22 -5.6 72 72 NNW 21 33 30.16 1022 10 16.0934 0 0
6:54 pm 18:54 Cloudy 30 -1.1 22 -5.6 72 72 NNW 20 31 30.18 1022 10 16.0934 0 0
7:29 pm 19:29 Partly Cloudy 29 -1.7 21 -6.1 72 72 NNW 14 22 30.24 1024 10 16.0934 0 0
7:54 pm 19:54 Clear 28 -2.2 21 -6.1 75 75 NNW 17 28 30.19 1022 10 16.0934 0 0
8:54 pm 20:54 Clear 28 -2.2 19 -7.2 69 69 NW 10 17 30.22 1024 10 16.0934 0 0
9:54 pm 21:54 Clear 26 -3.3 18 -7.8 71 71 NNW 12 19 30.23 1024 10 16.0934 0 0
10:54 pm 22:54 Clear 26 -3.3 18 -7.8 71 71 NW 12 19 30.24 1024 10 16.0934 0 0
11:54 pm 23:54 Clear 25 -3.9 17 -8.3 72 72 NNW 12 19 30.24 1024 10 16.0934 0 0

Powered by AerisWeather